User: anonymous   Login
Location: Unspecified
(0.0000°N, 0.0000°E)
Time: 20:52:37
(UTC+00:00)
Language:

NOSS 3-3 (C) - Orbit

View from above orbital plane
View from above orbital plane
View from above satellite
View from above satellite

Ground track
Ground track

The orbit data is extracted from the following two-line orbital elements,

1 28541U 05004C   18135.83995760 0.00000000  00000-0  00000-0 0    07
2 28541  63.4341  60.5529 0295173 357.6582   2.3418 13.40755925    02
Epoch (UTC): 15 May 2018 20:09:32
Eccentricity: 0.0295173
inclination: 63.4341°
perigee height: 885 km
apogee height: 1327 km
right ascension of ascending node: 60.5529°
argument of perigee: 357.6582°
revolutions per day: 13.40755925
mean anomaly at epoch: 2.3418°
orbit number at epoch: 0

The dashed part of the orbit path shows where the satellite is in the earth's shadow,  

DLR